Temp
79 78 79 78 77 76 75 74 74 74 74 75 76 76 76 75 74 73 71 71 72 73 74 74 73 75 75 75 73 73 74 74 74 75 75 75 75 74 74 74 73 73 73 73 73 72 72 73 73 73 73 72 73 71 73 76 78 80 78 75 74 74
78 75 76 76 75 76 75 76 75 75 74 74 74 75 75 75 75 71 71 71 71 71 72 74 74 76 74 74 74 73 74 75 74 74 74 74 74 74 74 74 73 73 73 72 72 71 72 72 72 73 73 72 71 72 74 76 77 79 77 75 74 73
75 76 75 75 75 76 76 76 76 76 76 74 75 76 74 73 75 72 70 71 71 71 72 73 73 75 75 74 74 73 74 74 74 75 74 74 74 73 73 73 72 72 72 72 72 71 73 73 71 72 72 71 71 73 76 76 76 76 77 75 73 74
76 75 76 75 76 75 75 75 74 75 75 74 73 75 71 71 70 73 72 70 71 72 72 71 76 77 76 74 73 72 73 74 74 74 74 74 74 73 73 72 72 72 71 73 73 74 76 76 73 71 71 72 73 75 77 76 76 79 75 76 74 73
78 77 76 74 75 72 75 75 74 73 75 75 74 69 69 68 70 71 71 70 71 73 74 73 73 73 74 74 73 72 72 73 73 73 73 73 73 74 72 73 72 71 71 72 74 75 76 75 73 73 73 74 75 77 77 76 76 77 75 74 72 73
78 76 75 75 76 77 75 75 74 74 75 74 72 67 68 68 69 71 71 72 72 72 72 71 73 72 73 73 73 73 73 74 73 73 73 74 74 73 72 75 74 72 72 74 75 75 76 75 75 74 75 76 77 77 77 76 77 76 74 72 72 73
79 78 76 77 77 77 76 75 74 74 74 72 71 68 68 67 68 70 72 72 71 71 71 70 71 72 73 73 73 72 72 71 70 70 72 73 74 74 74 74 74 74 74 76 78 78 77 77 77 77 75 77 77 78 76 78 77 76 73 72 72 72
78 78 77 79 77 76 75 74 73 73 71 72 72 72 71 70 70 70 73 73 74 73 71 71 71 72 73 71 70 70 70 70 70 69 70 72 72 73 74 75 75 76 77 78 78 78 77 78 77 76 75 76 77 77 77 78 77 76 74 73 72 72
78 78 78 79 77 77 75 72 71 71 70 72 71 69 71 71 70 71 72 73 74 72 72 71 71 72 72 69 68 67 70 69 70 71 72 72 72 72 74 75 74 74 76 76 76 75 77 78 76 76 76 76 76 78 77 77 77 77 75 74 72 72
77 78 77 79 77 75 74 72 70 70 70 72 70 70 70 71 71 72 72 73 74 72 71 70 72 71 70 70 70 69 69 69 69 71 70 70 71 72 72 73 68 68 73 75 76 76 75 76 79 77 77 76 76 77 76 77 77 77 77 75 73 71
84 78 78 78 76 75 74 72 72 71 72 71 70 72 72 73 71 72 72 73 71 71 72 73 71 70 70 69 68 69 68 69 69 69 69 69 69 71 73 71 71 69 69 71 73 75 74 75 77 81 79 78 77 76 78 78 78 79 79 76 74 71
81 79 80 80 78 75 75 74 73 72 72 72 71 70 72 71 70 73 74 73 71 71 73 71 71 71 70 69 69 68 68 69 69 69 68 67 68 68 70 71 69 69 69 69 70 71 73 74 75 78 80 79 79 76 77 76 79 80 79 77 74 73
80 79 79 79 79 79 78 76 73 72 74 73 72 70 71 70 72 74 73 74 73 74 73 73 71 72 71 72 71 69 69 70 69 69 69 67 67 67 67 68 71 71 72 72 71 72 73 71 73 75 78 81 78 79 80 78 77 78 79 78 75 74
79 79 78 78 77 79 79 79 78 75 75 74 70 69 70 69 71 73 73 74 73 73 73 73 71 72 71 70 70 69 68 68 69 69 68 66 66 66 66 68 68 66 70 72 70 70 68 70 72 75 76 79 78 75 76 79 77 77 76 78 77 75
77 77 78 77 78 78 78 79 79 77 76 75 73 69 70 67 69 72 71 72 72 72 74 72 72 67 69 70 70 67 67 68 68 68 66 66 65 66 66 68 68 68 70 71 73 72 70 70 70 73 74 75 76 78 76 77 77 78 78 77 77 76
76 76 76 76 76 76 77 76 76 78 76 77 76 76 74 72 73 73 71 72 73 73 74 75 74 69 70 70 70 68 67 67 66 66 67 67 66 66 66 67 69 69 67 71 72 71 70 69 69 71 73 72 73 74 74 75 77 79 81 79 78 76
76 76 76 76 76 76 76 76 76 76 77 77 77 76 76 75 74 73 72 73 73 73 75 73 72 70 69 68 67 67 66 67 66 65 66 67 67 68 67 67 67 69 69 68 69 73 71 69 71 71 73 72 73 73 73 73 75 75 80 77 78 79
76 76 75 75 75 75 76 76 75 75 77 76 77 77 77 78 75 75 74 74 75 75 75 76 75 72 68 69 68 67 66 67 66 66 67 66 66 67 67 65 66 68 68 66 66 66 65 65 68 70 68 70 70 71 71 72 73 73 74 77 76 77
75 75 75 75 75 75 75 74 74 75 74 75 75 75 76 75 75 75 74 75 75 74 75 75 76 75 72 72 69 67 66 67 67 67 66 67 67 68 67 66 67 67 68 67 65 65 65 64 65 65 66 68 69 70 70 70 71 72 73 74 76 78
75 75 75 74 75 74 75 73 73 75 75 74 74 74 74 75 75 74 75 74 74 73 75 74 74 74 73 72 72 70 68 68 67 67 66 65 65 66 67 66 65 66 66 65 66 66 65 65 64 64 63 65 67 68 68 69 70 72 71 73 74 74
74 74 74 74 74 74 73 73 73 73 71 73 73 73 73 73 73 73 73 76 75 74 74 73 73 74 73 74 72 72 72 71 70 68 66 65 66 67 67 66 66 66 66 65 64 65 65 64 63 62 64 65 65 69 68 68 69 70 72 71 72 72
74 74 74 74 74 74 75 73 73 73 72 73 73 72 71 71 72 73 73 72 72 73 73 73 73 74 72 73 72 71 71 71 70 68 68 68 67 66 66 66 66 64 65 65 64 65 64 62 61 60 59 60 64 66 67 67 68 68 71 73 73 71
74 74 74 75 74 74 74 74 74 74 74 73 74 73 74 73 73 74 72 73 72 73 73 73 73 72 73 73 72 72 71 71 71 70 68 67 66 66 65 66 66 64 62 65 64 66 65 65 61 61 61 59 58 58 62 63 66 68 70 72 72 72
73 74 74 75 75 74 74 74 74 74 73 73 71 72 72 72 72 73 72 72 72 72 73 73 76 77 74 72 71 70 70 70 70 71 69 66 66 66 65 64 64 64 64 63 63 63 65 64 63 61 57 57 58 58 56 58 61 65 68 69 70 71
74 74 74 74 74 73 73 73 72 72 72 70 71 70 70 70 71 71 71 70 71 73 73 73 73 74 75 71 70 70 71 70 69 70 70 69 69 68 67 67 66 64 64 63 62 63 63 64 63 64 61 57 56 55 57 58 61 62 66 66 69 70
74 74 74 74 73 73 72 70 69 68 66 67 66 67 67 67 69 69 69 71 73 73 73 72 73 73 73 72 70 70 70 70 69 68 68 68 68 69 68 68 68 66 65 64 63 61 61 63 63 63 64 62 60 57 57 59 60 56 64 65 66 69
74 74 74 74 73 72 71 71 70 70 68 68 67 69 69 70 69 69 71 70 70 71 73 71 71 71 71 71 70 70 69 70 70 70 70 68 67 67 68 68 68 68 67 65 64 61 62 62 62 62 62 63 62 62 61 58 56 58 56 59 63 64
74 74 74 74 73 72 71 70 70 70 70 69 69 68 69 70 70 70 69 70 70 70 72 72 71 72 72 71 70 69 70 68 69 72 70 68 66 67 68 68 67 68 67 66 66 64 63 64 62 60 63 61 60 61 62 61 62 59 56 55 58 63
74 74 73 73 72 72 72 71 70 71 69 71 70 70 71 71 69 70 69 70 70 70 70 71 72 71 70 71 70 69 68 68 67 68 70 69 67 68 66 65 65 65 64 65 65 65 64 64 65 63 63 61 62 61 61 60 60 60 58 55 55 58
74 74 73 72 72 72 72 71 70 70 70 69 69 70 70 69 68 69 69 69 69 69 68 68 70 70 69 71 70 69 68 68 67 68 68 68 67 66 65 65 65 64 65 64 64 64 63 63 64 64 64 64 63 63 62 61 61 60 61 60 56 57
74 74 73 72 72 71 72 72 71 71 70 70 69 69 68 67 68 68 67 68 68 69 69 68 68 69 69 69 68 68 68 68 69 68 68 69 66 67 66 66 65 65 65 64 63 63 63 63 63 62 63 62 61 62 61 60 60 61 61 60 59 60
73 73 73 72 72 72 72 71 71 71 71 70 70 70 68 68 68 68 67 67 68 68 68 68 68 68 67 68 67 68 69 68 68 68 67 68 68 68 67 67 65 65 65 65 64 64 63 61 62 62 61 62 62 63 62 61 61 61 60 59 59 58
73 73 72 72 71 71 71 71 71 71 71 71 70 70 69 68 68 68 68 67 67 67 67 67 67 67 67 68 67 67 67 66 66 66 67 67 67 67 66 66 66 65 64 63 63 62 61 60 61 61 61 64 63 64 62 62 62 61 61 60 60 57
73 73 73 72 72 71 71 71 72 72 71 71 70 70 70 69 69 69 69 68 68 68 67 66 67 66 67 68 68 68 69 67 67 67 67 67 67 68 68 67 66 64 64 64 65 63 62 62 61 62 63 61 62 62 61 63 62 62 61 60 57 56
73 73 72 72 71 71 71 72 72 72 72 71 70 70 70 70 70 69 69 69 69 69 68 68 68 68 69 68 68 68 68 67 67 67 67 67 68 67 66 68 66 65 64 64 64 63 62 62 62 62 61 61 63 61 61 62 61 62 63 61 60 58
73 73 73 72 71 71 71 72 72 71 71 71 71 71 71 71 70 71 70 70 69 70 70 69 69 69 68 68 68 68 68 67 67 67 66 67 67 66 67 66 64 64 64 67 63 63 62 62 62 61 61 62 62 61 62 62 63 61 61 61 61 61
69 73 73 72 72 72 71 71 71 72 72 71 71 70 70 70 70 71 72 71 70 71 72 70 70 69 68 68 68 67 67 67 66 66 66 66 67 66 65 66 65 64 63 65 64 64 64 63 62 63 61 63 62 61 61 62 61 62 61 61 61 60
MSLP
1012.03 1012.31 1012.43 1012.59 1012.75 1013.03 1013.35 1013.47 1013.67 1013.79 1013.95 1014.07 1014.19 1014.27 1014.39 1014.67 1014.99 1015.51 1015.99 1015.71 1015.63 1015.71 1015.71 1015.79 1015.95 1015.91 1015.99 1016.07 1016.15 1016.23 1016.31 1016.43 1016.47 1016.47 1016.47 1016.51 1016.59 1016.67 1016.75 1016.83 1016.95 1017.07 1017.15 1017.19 1017.19 1017.23 1017.23 1017.23 1017.23 1017.23 1017.15 1017.07 1016.91 1016.83 1016.63 1016.55 1016.31 1016.23 1016.71 1017.11 1017.39 1017.75
1012.07 1012.59 1012.67 1012.67 1012.91 1013.07 1013.39 1013.39 1013.63 1013.91 1014.11 1014.23 1014.27 1014.39 1014.59 1014.83 1015.15 1015.67 1016.03 1015.79 1015.59 1015.75 1015.79 1015.79 1015.83 1015.83 1016.03 1016.11 1016.19 1016.27 1016.35 1016.39 1016.43 1016.43 1016.47 1016.55 1016.63 1016.71 1016.79 1016.87 1016.99 1017.07 1017.07 1017.15 1017.19 1017.19 1017.15 1017.11 1017.11 1017.11 1017.07 1017.03 1017.03 1016.87 1016.55 1016.43 1016.27 1016.35 1016.83 1017.07 1017.39 1017.71
1012.39 1012.59 1012.67 1012.67 1012.91 1013.07 1013.27 1013.39 1013.63 1013.83 1014.03 1014.19 1014.27 1014.51 1014.95 1015.31 1015.47 1016.03 1016.15 1015.59 1015.39 1015.83 1015.83 1015.75 1015.83 1015.79 1015.87 1016.15 1016.11 1016.27 1016.27 1016.27 1016.31 1016.31 1016.35 1016.47 1016.63 1016.71 1016.75 1016.87 1017.03 1017.15 1017.15 1017.15 1017.19 1017.15 1016.95 1016.91 1017.03 1017.03 1017.03 1017.07 1017.03 1016.83 1016.59 1016.35 1016.35 1016.43 1016.99 1017.19 1017.43 1017.71
1012.47 1012.55 1012.51 1012.75 1012.95 1013.27 1013.39 1013.55 1013.71 1013.79 1013.99 1014.15 1014.43 1014.75 1015.47 1015.91 1015.71 1015.59 1015.63 1015.71 1015.87 1015.67 1015.79 1015.79 1015.63 1015.63 1015.75 1015.99 1016.19 1016.23 1016.15 1016.11 1016.15 1016.19 1016.31 1016.47 1016.59 1016.67 1016.79 1016.91 1017.07 1017.19 1017.31 1017.31 1017.23 1017.03 1016.79 1016.63 1016.79 1016.87 1016.99 1016.95 1016.87 1016.75 1016.51 1016.47 1016.51 1016.71 1017.11 1017.27 1017.51 1017.75
1012.15 1012.47 1012.71 1013.03 1013.23 1013.67 1013.59 1013.71 1013.87 1014.03 1014.07 1014.23 1014.63 1015.39 1015.71 1015.71 1015.51 1015.51 1015.71 1015.79 1015.87 1015.63 1015.59 1015.63 1015.75 1015.79 1015.87 1015.99 1016.15 1016.19 1016.11 1016.15 1016.31 1016.47 1016.51 1016.55 1016.59 1016.63 1016.79 1016.95 1017.07 1017.23 1017.23 1017.19 1017.11 1016.79 1016.55 1016.51 1016.59 1016.71 1016.83 1016.71 1016.63 1016.47 1016.47 1016.51 1016.51 1016.79 1016.99 1017.27 1017.63 1017.79
1012.11 1012.51 1012.71 1012.71 1012.87 1013.03 1013.35 1013.63 1013.91 1014.07 1014.15 1014.39 1014.87 1015.47 1015.75 1015.71 1015.59 1015.35 1015.43 1015.59 1015.59 1015.55 1015.47 1015.55 1015.71 1015.95 1015.99 1016.11 1016.23 1016.23 1016.23 1016.27 1016.51 1016.55 1016.43 1016.39 1016.39 1016.55 1016.71 1016.71 1016.83 1017.11 1017.11 1016.95 1016.79 1016.55 1016.35 1016.39 1016.55 1016.55 1016.55 1016.43 1016.35 1016.39 1016.47 1016.55 1016.55 1016.87 1017.15 1017.43 1017.71 1017.79
1012.07 1012.47 1012.67 1012.63 1012.67 1012.91 1013.23 1013.47 1013.83 1013.95 1014.15 1014.59 1014.99 1015.51 1015.87 1015.63 1015.51 1015.43 1015.35 1015.39 1015.59 1015.67 1015.75 1015.83 1015.87 1015.95 1016.11 1016.15 1016.31 1016.23 1016.31 1016.43 1016.59 1016.55 1016.35 1016.35 1016.35 1016.39 1016.51 1016.55 1016.63 1016.75 1016.75 1016.63 1016.43 1016.23 1016.19 1016.15 1016.07 1016.15 1016.15 1016.23 1016.19 1016.31 1016.47 1016.51 1016.55 1016.79 1017.23 1017.47 1017.67 1017.71
1011.91 1012.23 1012.43 1012.51 1012.87 1013.15 1013.47 1013.71 1013.87 1014.07 1014.23 1014.31 1014.63 1014.99 1015.27 1015.15 1014.91 1014.79 1014.75 1015.03 1015.15 1015.39 1015.67 1015.87 1015.99 1015.99 1016.15 1016.27 1016.31 1016.15 1016.15 1016.47 1016.67 1016.59 1016.35 1016.31 1016.47 1016.47 1016.43 1016.39 1016.59 1016.67 1016.55 1016.27 1016.27 1016.23 1016.23 1016.19 1016.07 1016.07 1016.31 1016.23 1016.15 1016.19 1016.35 1016.43 1016.55 1016.71 1017.15 1017.43 1017.63 1017.75
1011.67 1011.99 1012.15 1012.31 1012.83 1012.99 1013.35 1013.75 1014.03 1014.11 1014.15 1014.19 1014.47 1014.75 1014.83 1014.87 1015.11 1015.11 1014.99 1014.99 1015.11 1015.43 1015.59 1015.67 1015.83 1016.03 1016.19 1016.43 1016.39 1016.23 1016.35 1016.63 1016.59 1016.43 1016.31 1016.51 1016.55 1016.63 1016.47 1016.47 1016.63 1016.87 1016.55 1016.47 1016.31 1016.31 1016.23 1016.31 1016.27 1016.23 1016.39 1016.35 1016.23 1016.19 1016.27 1016.39 1016.51 1016.75 1017.11 1017.35 1017.59 1017.79
1011.71 1011.91 1012.11 1012.31 1012.75 1013.07 1013.35 1013.67 1013.71 1013.87 1013.91 1014.15 1014.55 1014.67 1014.75 1014.79 1014.91 1015.07 1015.15 1015.03 1015.11 1015.47 1015.83 1016.11 1015.91 1016.03 1016.31 1016.43 1016.23 1016.27 1016.51 1016.47 1016.35 1016.35 1016.55 1016.83 1016.71 1016.79 1016.75 1016.63 1017.07 1017.39 1017.19 1016.83 1016.47 1016.23 1016.15 1016.35 1016.31 1016.31 1016.27 1016.47 1016.39 1016.23 1016.19 1016.31 1016.51 1016.63 1016.99 1017.23 1017.47 1017.75
1011.03 1011.79 1012.07 1012.47 1012.79 1013.19 1013.35 1013.67 1013.71 1013.59 1013.63 1013.91 1014.07 1014.11 1014.35 1014.51 1014.67 1014.83 1014.99 1015.07 1015.35 1015.39 1015.59 1015.71 1015.99 1016.19 1016.15 1016.23 1016.47 1016.43 1016.51 1016.59 1016.51 1016.51 1016.75 1016.99 1017.11 1017.15 1016.91 1017.11 1017.47 1017.95 1017.75 1017.51 1017.11 1016.63 1016.47 1016.27 1016.19 1016.11 1016.19 1016.39 1016.51 1016.31 1016.27 1016.23 1016.35 1016.51 1016.75 1017.07 1017.35 1017.63
1011.23 1011.47 1011.59 1012.15 1012.51 1012.91 1013.15 1013.35 1013.63 1013.75 1014.03 1014.27 1014.35 1014.51 1014.55 1014.55 1014.63 1014.59 1014.83 1015.11 1015.59 1015.67 1015.43 1015.63 1015.79 1015.91 1016.11 1016.35 1016.51 1016.71 1016.75 1016.79 1016.83 1016.83 1017.19 1017.71 1017.55 1017.27 1017.43 1017.59 1017.75 1017.79 1017.31 1017.35 1017.03 1016.59 1016.59 1016.27 1016.31 1016.11 1015.95 1016.15 1016.27 1016.35 1016.27 1016.31 1016.35 1016.39 1016.51 1016.83 1017.19 1017.47
1011.35 1011.59 1011.71 1012.03 1012.19 1012.35 1012.51 1012.95 1013.19 1013.67 1013.87 1014.11 1014.39 1014.59 1014.67 1014.83 1014.75 1014.67 1014.87 1015.03 1015.15 1015.31 1015.31 1015.43 1015.59 1015.67 1015.83 1015.95 1016.03 1016.35 1016.59 1016.67 1016.71 1016.79 1016.99 1017.19 1017.31 1017.35 1017.67 1017.63 1017.51 1017.55 1017.43 1017.27 1017.15 1016.83 1016.75 1016.67 1016.59 1016.23 1016.11 1016.07 1016.11 1016.19 1016.07 1016.19 1016.35 1016.27 1016.31 1016.63 1016.91 1017.15
1011.47 1011.75 1011.95 1012.19 1012.27 1012.35 1012.47 1012.55 1012.95 1013.51 1013.71 1014.03 1014.79 1015.07 1015.03 1015.15 1015.11 1014.83 1014.83 1014.91 1015.03 1015.15 1015.19 1015.23 1015.67 1015.71 1015.63 1015.75 1015.95 1016.19 1016.31 1016.35 1016.51 1016.63 1016.83 1016.83 1016.75 1016.91 1017.19 1017.43 1017.51 1017.87 1017.71 1017.23 1017.31 1017.15 1016.99 1016.99 1016.83 1016.51 1016.31 1016.19 1016.15 1016.15 1016.03 1016.15 1016.27 1016.27 1016.19 1016.31 1016.55 1016.87
1011.59 1011.91 1012.07 1012.35 1012.47 1012.63 1012.71 1012.79 1012.95 1013.39 1013.71 1013.91 1014.63 1015.39 1015.39 1015.83 1015.55 1014.99 1015.03 1015.15 1015.11 1015.23 1015.11 1015.31 1015.63 1016.07 1015.87 1015.79 1016.07 1016.83 1017.15 1016.95 1016.63 1016.87 1017.31 1017.39 1017.47 1017.51 1017.67 1017.87 1017.63 1017.75 1017.63 1017.23 1016.99 1016.99 1017.07 1017.11 1017.07 1016.99 1016.75 1016.31 1016.35 1016.31 1016.27 1016.19 1016.07 1016.23 1016.23 1016.19 1016.23 1016.63
1011.75 1011.99 1012.27 1012.43 1012.67 1012.79 1012.91 1013.07 1013.23 1013.39 1013.55 1013.63 1013.83 1014.23 1014.63 1014.99 1015.07 1015.03 1015.15 1015.19 1015.23 1015.19 1015.11 1014.95 1015.23 1015.95 1015.95 1015.91 1016.11 1016.59 1017.15 1017.19 1016.91 1016.95 1016.99 1017.07 1017.19 1017.51 1017.71 1017.71 1017.51 1017.59 1017.83 1017.47 1017.15 1017.03 1016.99 1017.31 1017.35 1017.15 1016.99 1016.75 1016.71 1016.59 1016.63 1016.43 1016.31 1016.31 1016.07 1016.15 1016.27 1016.35
1011.95 1012.15 1012.31 1012.51 1012.71 1012.83 1012.91 1013.15 1013.35 1013.47 1013.51 1013.47 1013.63 1013.87 1013.99 1014.31 1014.59 1014.79 1014.87 1014.99 1015.03 1014.99 1014.91 1015.15 1015.31 1015.75 1015.99 1016.31 1016.47 1016.75 1017.23 1017.07 1017.15 1017.15 1017.11 1017.07 1017.19 1017.31 1017.47 1017.59 1017.39 1017.27 1017.43 1017.67 1017.59 1017.23 1017.15 1017.03 1017.19 1017.19 1016.99 1017.07 1017.03 1016.99 1016.99 1016.75 1016.55 1016.43 1016.35 1016.43 1016.23 1016.27
1011.87 1012.07 1012.31 1012.55 1012.71 1012.83 1012.95 1013.11 1013.27 1013.43 1013.47 1013.63 1013.59 1013.59 1013.67 1013.87 1014.15 1014.35 1014.55 1014.71 1014.67 1014.71 1014.79 1014.87 1014.95 1015.39 1015.87 1015.95 1016.31 1016.67 1016.75 1016.71 1017.11 1017.19 1016.87 1016.91 1017.03 1016.95 1017.27 1017.67 1017.35 1017.15 1017.39 1017.71 1017.75 1017.79 1017.95 1017.95 1017.63 1017.67 1017.55 1017.47 1017.55 1017.51 1017.31 1017.11 1016.91 1016.67 1016.63 1016.63 1016.43 1016.19
1011.91 1012.11 1012.39 1012.51 1012.67 1012.83 1012.95 1013.19 1013.35 1013.47 1013.67 1013.63 1013.71 1013.75 1013.79 1013.99 1014.11 1014.19 1014.39 1014.55 1014.63 1014.75 1014.83 1014.87 1014.91 1014.99 1015.31 1015.47 1015.95 1016.03 1016.31 1016.43 1016.51 1016.55 1016.51 1016.63 1016.79 1016.83 1017.03 1017.31 1017.19 1017.11 1017.19 1017.39 1017.63 1017.71 1017.83 1017.91 1017.79 1017.83 1018.15 1017.99 1017.87 1018.03 1017.91 1017.67 1017.47 1017.27 1017.07 1016.91 1016.71 1016.51
1011.95 1012.15 1012.35 1012.59 1012.71 1012.99 1013.11 1013.39 1013.67 1013.59 1013.71 1013.83 1013.99 1014.11 1014.03 1014.15 1014.23 1014.47 1014.55 1014.71 1014.83 1014.95 1014.91 1014.99 1014.99 1015.03 1015.15 1015.27 1015.35 1015.75 1015.95 1016.11 1016.27 1016.47 1016.63 1016.75 1016.91 1017.03 1017.03 1017.15 1017.19 1017.27 1017.43 1017.51 1017.51 1017.71 1017.83 1017.87 1018.07 1018.15 1017.99 1018.07 1017.99 1018.31 1018.67 1018.19 1017.99 1017.79 1017.51 1017.15 1016.91 1016.63
1011.99 1012.11 1012.39 1012.71 1012.79 1012.99 1013.31 1013.51 1013.55 1013.79 1014.15 1014.07 1014.27 1014.27 1014.35 1014.39 1014.55 1014.79 1014.83 1014.87 1014.99 1015.07 1015.19 1015.31 1015.27 1015.19 1015.27 1015.23 1015.23 1015.23 1015.39 1015.75 1015.99 1016.27 1016.63 1016.83 1016.87 1016.91 1016.95 1017.11 1017.11 1017.15 1017.39 1017.63 1017.71 1017.63 1017.75 1017.83 1018.23 1018.39 1018.23 1018.19 1018.23 1018.19 1018.35 1018.47 1018.71 1018.31 1017.87 1017.51 1017.07 1016.99
1011.95 1012.11 1012.27 1012.39 1012.55 1012.71 1012.91 1013.23 1013.59 1013.75 1013.83 1013.99 1014.23 1014.43 1014.71 1014.79 1014.91 1014.95 1014.99 1015.11 1015.23 1015.31 1015.31 1015.39 1015.39 1015.35 1015.23 1015.19 1015.31 1015.35 1015.47 1015.67 1015.87 1016.23 1016.43 1016.59 1016.79 1016.87 1016.95 1017.07 1017.15 1017.31 1017.31 1017.51 1017.71 1017.63 1017.75 1017.87 1018.39 1018.51 1018.71 1018.83 1018.55 1018.27 1018.23 1018.23 1018.47 1018.59 1018.19 1017.67 1017.27 1017.15
1011.91 1012.07 1012.15 1012.19 1012.39 1012.71 1012.75 1012.87 1013.11 1013.39 1013.51 1014.03 1014.03 1014.15 1014.43 1014.67 1014.79 1015.07 1015.11 1015.15 1015.27 1015.27 1015.27 1015.31 1015.31 1015.23 1015.27 1015.35 1015.35 1015.43 1015.55 1015.63 1015.79 1016.07 1016.39 1016.59 1016.67 1016.83 1016.91 1016.95 1017.03 1017.31 1017.55 1017.47 1017.59 1017.51 1017.67 1017.71 1018.31 1018.39 1018.67 1019.07 1019.23 1019.27 1018.75 1018.59 1018.31 1018.31 1018.15 1017.79 1017.51 1017.39
1011.87 1011.87 1012.07 1012.11 1012.31 1012.47 1012.71 1012.87 1012.99 1013.31 1013.51 1013.87 1014.43 1014.47 1014.59 1014.75 1014.95 1015.03 1015.31 1015.27 1015.39 1015.35 1015.27 1015.23 1015.11 1015.11 1015.35 1015.39 1015.55 1015.63 1015.63 1015.71 1015.79 1015.75 1016.11 1016.51 1016.59 1016.71 1016.79 1016.95 1017.03 1017.15 1017.19 1017.63 1017.63 1017.59 1017.51 1017.71 1017.95 1018.19 1018.99 1019.03 1019.11 1019.11 1019.47 1019.23 1018.83 1018.35 1018.07 1018.07 1017.91 1017.71
1011.71 1011.83 1011.99 1012.11 1012.31 1012.55 1012.87 1013.19 1013.39 1013.67 1013.91 1014.27 1014.43 1014.67 1014.99 1015.19 1015.19 1015.27 1015.39 1015.51 1015.59 1015.39 1015.39 1015.47 1015.39 1015.35 1015.47 1015.75 1015.79 1015.75 1015.79 1015.83 1015.83 1015.87 1015.95 1016.11 1016.27 1016.27 1016.47 1016.63 1016.75 1016.87 1017.19 1017.43 1017.83 1017.75 1017.75 1017.67 1017.87 1017.83 1018.27 1018.91 1019.27 1019.67 1019.31 1019.11 1018.75 1018.63 1018.23 1018.39 1018.03 1017.71
1011.59 1011.79 1012.03 1012.15 1012.35 1012.71 1013.11 1013.51 1013.95 1014.43 1014.91 1015.03 1015.27 1015.27 1015.51 1015.63 1015.51 1015.59 1015.75 1015.51 1015.47 1015.51 1015.63 1015.63 1015.71 1015.75 1015.79 1015.91 1016.03 1015.99 1016.03 1015.99 1016.11 1016.19 1016.15 1016.19 1016.27 1016.19 1016.31 1016.59 1016.79 1016.83 1017.11 1017.19 1017.51 1017.99 1017.99 1017.83 1017.87 1018.07 1018.15 1018.31 1018.63 1019.27 1019.31 1018.95 1018.91 1019.43 1018.39 1018.31 1018.23 1017.87
1011.55 1011.79 1011.95 1012.19 1012.43 1012.79 1013.19 1013.51 1013.87 1014.27 1014.55 1014.79 1015.11 1015.03 1014.95 1015.03 1015.31 1015.47 1015.43 1015.67 1015.75 1015.67 1015.71 1015.91 1015.99 1016.03 1016.11 1016.15 1016.23 1016.23 1016.19 1016.15 1016.19 1016.19 1016.19 1016.35 1016.47 1016.59 1016.59 1016.59 1016.67 1016.71 1016.91 1017.23 1017.27 1017.71 1017.95 1018.19 1018.19 1018.23 1018.35 1018.43 1018.55 1018.71 1018.99 1019.27 1019.39 1019.15 1019.51 1019.11 1018.71 1018.39
1011.47 1011.71 1011.95 1012.19 1012.51 1012.75 1013.15 1013.47 1013.83 1014.11 1014.23 1014.47 1014.67 1014.99 1014.99 1015.15 1015.15 1015.35 1015.59 1015.71 1015.79 1015.83 1015.79 1015.91 1016.03 1016.11 1016.19 1016.35 1016.39 1016.43 1016.35 1016.35 1016.27 1016.19 1016.35 1016.63 1016.79 1016.83 1016.87 1016.83 1016.79 1016.79 1016.83 1016.99 1017.15 1017.51 1017.79 1017.83 1018.15 1018.51 1018.43 1018.55 1018.51 1018.51 1018.71 1018.99 1018.95 1019.07 1019.43 1019.71 1019.19 1018.39
1011.51 1011.71 1011.99 1012.19 1012.51 1012.75 1012.99 1013.31 1013.63 1013.87 1014.19 1014.19 1014.43 1014.71 1014.83 1014.99 1015.35 1015.47 1015.71 1015.67 1015.75 1015.87 1015.99 1015.99 1016.11 1016.27 1016.35 1016.47 1016.55 1016.63 1016.63 1016.63 1016.67 1016.59 1016.55 1016.79 1016.91 1016.99 1017.15 1017.27 1017.19 1017.19 1017.27 1017.31 1017.35 1017.39 1017.51 1017.67 1017.71 1018.07 1018.31 1018.63 1018.63 1018.67 1018.83 1019.15 1018.79 1018.67 1019.19 1019.43 1019.31 1019.11
1011.51 1011.67 1011.91 1012.19 1012.47 1012.71 1012.91 1013.15 1013.55 1013.75 1014.07 1014.31 1014.43 1014.63 1014.79 1015.23 1015.47 1015.59 1015.83 1015.87 1015.91 1016.03 1016.19 1016.31 1016.27 1016.35 1016.47 1016.51 1016.63 1016.71 1016.79 1016.83 1016.87 1016.83 1016.87 1016.99 1017.07 1017.23 1017.31 1017.35 1017.39 1017.43 1017.43 1017.55 1017.59 1017.63 1017.83 1017.87 1017.87 1017.95 1017.91 1017.99 1018.23 1018.47 1018.79 1018.79 1018.75 1018.79 1018.87 1018.95 1019.19 1018.99
1011.39 1011.59 1011.87 1012.15 1012.39 1012.71 1012.87 1013.11 1013.39 1013.63 1013.87 1014.23 1014.43 1014.59 1015.03 1015.35 1015.47 1015.71 1015.91 1016.03 1016.03 1016.07 1016.15 1016.39 1016.47 1016.51 1016.55 1016.67 1016.75 1016.83 1016.91 1016.95 1016.95 1016.95 1016.99 1017.07 1017.23 1017.31 1017.35 1017.43 1017.47 1017.55 1017.63 1017.79 1017.83 1017.87 1017.95 1017.99 1018.03 1018.15 1018.19 1018.23 1018.39 1018.51 1018.71 1018.83 1018.83 1018.71 1018.71 1018.91 1018.95 1018.75
1011.27 1011.51 1011.83 1012.11 1012.39 1012.63 1012.83 1013.03 1013.15 1013.43 1013.75 1013.99 1014.23 1014.55 1014.99 1015.31 1015.47 1015.67 1015.83 1015.99 1015.91 1016.07 1016.27 1016.39 1016.51 1016.63 1016.75 1016.79 1016.91 1016.95 1016.91 1016.99 1017.07 1017.07 1017.15 1017.15 1017.19 1017.27 1017.35 1017.47 1017.59 1017.67 1017.75 1017.83 1017.91 1018.07 1018.27 1018.39 1018.35 1018.31 1018.39 1018.31 1018.31 1018.31 1018.55 1018.79 1018.79 1018.75 1018.91 1018.99 1018.99 1018.95
1011.23 1011.35 1011.71 1011.95 1012.31 1012.51 1012.75 1012.95 1013.07 1013.31 1013.59 1013.79 1014.07 1014.35 1014.71 1015.03 1015.19 1015.47 1015.63 1015.79 1015.91 1016.15 1016.27 1016.51 1016.59 1016.75 1016.79 1016.83 1016.91 1017.07 1017.07 1017.15 1017.27 1017.23 1017.23 1017.31 1017.35 1017.35 1017.47 1017.59 1017.71 1017.87 1017.99 1018.11 1018.23 1018.31 1018.51 1018.55 1018.51 1018.59 1018.55 1018.35 1018.39 1018.47 1018.67 1018.59 1018.67 1018.79 1018.79 1018.83 1018.91 1019.11
1011.19 1011.23 1011.55 1011.83 1012.07 1012.43 1012.63 1012.79 1012.87 1013.15 1013.47 1013.67 1013.99 1014.19 1014.51 1014.83 1015.03 1015.15 1015.31 1015.59 1015.71 1015.87 1016.15 1016.35 1016.47 1016.63 1016.67 1016.71 1016.83 1016.95 1016.95 1017.07 1017.19 1017.27 1017.35 1017.39 1017.39 1017.39 1017.39 1017.63 1017.79 1017.95 1018.11 1018.15 1018.11 1018.31 1018.47 1018.59 1018.63 1018.63 1018.55 1018.67 1018.67 1018.75 1018.71 1018.63 1018.67 1018.71 1018.83 1018.99 1019.23 1019.47
1011.27 1011.31 1011.47 1011.67 1011.91 1012.27 1012.51 1012.67 1012.75 1012.99 1013.35 1013.63 1013.95 1014.11 1014.31 1014.51 1014.79 1014.99 1015.11 1015.31 1015.47 1015.51 1015.83 1016.03 1016.23 1016.35 1016.47 1016.67 1016.71 1016.87 1016.95 1017.15 1017.27 1017.35 1017.43 1017.51 1017.51 1017.51 1017.47 1017.51 1017.83 1017.95 1018.07 1018.11 1018.27 1018.39 1018.59 1018.67 1018.83 1018.83 1018.79 1018.75 1018.75 1018.91 1018.91 1018.87 1018.79 1018.91 1018.87 1019.03 1019.15 1019.39
1011.03 1011.23 1011.35 1011.59 1011.71 1011.95 1012.27 1012.47 1012.63 1012.95 1013.27 1013.59 1013.83 1014.03 1014.19 1014.35 1014.59 1014.75 1014.95 1015.19 1015.39 1015.43 1015.51 1015.75 1015.91 1016.11 1016.39 1016.51 1016.67 1016.83 1016.91 1017.11 1017.19 1017.31 1017.43 1017.47 1017.51 1017.59 1017.59 1017.71 1017.91 1018.03 1018.19 1018.19 1018.39 1018.47 1018.59 1018.67 1018.79 1018.83 1018.87 1018.75 1018.79 1019.03 1018.99 1018.99 1018.95 1019.07 1019.07 1019.11 1019.11 1019.11
1011.75 1011.19 1011.23 1011.39 1011.55 1011.71 1011.99 1012.31 1012.59 1012.79 1013.19 1013.51 1013.79 1014.03 1014.23 1014.31 1014.51 1014.67 1014.83 1015.03 1015.27 1015.35 1015.39 1015.55 1015.79 1015.95 1016.27 1016.43 1016.51 1016.67 1016.87 1016.99 1017.15 1017.23 1017.35 1017.39 1017.43 1017.51 1017.67 1017.71 1017.95 1018.07 1018.19 1018.19 1018.23 1018.35 1018.39 1018.59 1018.71 1018.71 1018.83 1018.75 1018.79 1018.99 1019.07 1018.99 1019.15 1019.23 1019.23 1019.23 1019.23 1019.15
Wind_Speed
9 9 8 7 7 7 9 12 10 12 12 10 9 9 10 10 9 9 10 2 4 2 2 3 3 4 6 4 4 4 7 7 7 7 8 8 9 9 9 9 9 10 9 8 7 6 6 6 6 5 6 5 7 4 5 5 5 3 10 8 9 9
9 10 6 4 3 6 7 8 8 8 7 8 8 8 7 5 7 7 9 4 3 1 1 2 3 4 3 3 4 4 5 7 6 7 7 8 8 8 8 9 9 9 9 8 7 4 5 7 8 8 7 7 4 4 5 5 4 3 9 8 7 10
9 9 8 6 5 5 7 4 6 6 5 6 5 6 5 3 4 6 4 6 4 3 3 2 2 4 5 3 5 5 6 7 7 8 8 7 8 8 8 9 9 8 7 8 5 4 5 5 5 8 7 5 4 4 6 3 3 2 8 8 7 14
12 9 7 5 5 4 4 3 3 2 5 4 3 3 5 1 2 3 6 4 2 3 4 2 4 6 6 3 5 5 7 9 10 10 9 7 9 8 9 9 8 7 5 4 4 5 6 5 5 4 4 4 5 6 3 2 3 3 6 10 9 14
11 8 6 5 6 6 6 5 3 3 3 3 4 6 5 2 1 1 3 3 4 4 4 3 2 2 2 3 3 4 5 5 3 4 7 4 5 5 5 5 4 4 4 5 6 7 7 4 5 5 5 6 6 4 3 2 3 3 6 7 9 13
10 8 6 4 5 6 6 5 5 4 3 2 5 6 1 2 4 2 3 4 5 4 1 0 1 1 2 3 4 5 4 3 2 2 6 4 5 4 5 5 5 5 5 6 7 8 3 2 7 7 6 7 5 4 2 3 5 4 6 7 9 15
9 9 9 6 4 5 4 4 4 3 3 4 4 7 4 4 4 5 5 5 5 4 3 2 2 3 2 2 2 0 1 2 2 1 1 2 3 5 5 4 4 6 6 8 9 4 1 5 2 3 3 4 4 4 4 4 2 4 7 6 8 15
8 7 6 9 7 6 6 6 6 4 3 3 2 5 7 6 4 4 4 3 4 3 3 3 2 2 2 1 1 0 1 2 1 1 2 2 2 2 5 4 4 5 6 4 3 2 2 3 3 2 3 3 3 4 5 4 4 3 7 7 7 12
9 7 6 7 6 5 5 6 5 4 5 3 4 1 4 4 5 4 3 2 2 2 2 1 1 2 2 3 1 2 1 2 2 3 1 1 1 3 3 2 2 4 3 4 4 3 3 2 3 1 2 4 3 2 4 3 2 4 7 7 6 9
13 8 6 6 4 5 4 3 3 2 3 6 5 5 6 4 2 4 4 4 4 2 2 3 4 3 4 3 3 2 2 1 1 0 2 3 1 3 4 1 4 7 6 8 4 3 3 3 4 4 4 2 4 3 2 5 4 3 7 7 6 8
11 13 9 7 6 6 6 6 3 1 2 3 1 1 4 4 4 4 4 3 2 2 4 4 3 4 3 3 2 1 1 1 2 0 2 3 6 5 5 3 2 3 4 5 7 5 5 3 3 5 5 4 4 4 3 4 4 4 6 8 7 7
9 4 1 12 8 8 7 7 8 5 5 4 4 2 2 2 2 2 3 4 6 6 5 2 3 1 3 4 4 4 1 1 2 2 3 1 3 5 8 6 1 5 4 1 6 4 6 2 2 4 3 6 5 4 5 4 4 5 5 7 8 7
7 3 4 5 4 5 6 9 5 5 5 7 3 1 0 0 3 3 2 4 4 5 3 3 4 4 2 4 5 4 3 2 1 3 5 5 5 5 5 8 4 4 4 4 4 3 2 5 5 5 5 1 5 4 4 3 3 3 5 7 8 9
5 6 5 5 1 3 3 4 8 7 4 6 6 2 2 2 4 1 0 3 4 5 3 2 1 1 2 2 3 3 1 2 2 2 4 3 3 5 6 6 1 2 7 4 3 4 3 3 3 5 5 5 2 3 3 4 5 3 2 5 9 8
5 5 5 5 4 5 5 5 6 6 5 4 8 9 7 4 3 2 1 1 2 2 5 5 6 2 4 2 1 5 2 2 3 3 3 4 3 1 2 5 1 2 4 5 3 4 1 1 3 5 7 3 2 4 3 2 5 5 4 2 1 9
6 5 6 5 6 5 5 5 4 4 3 2 5 6 8 7 4 2 1 2 2 3 4 1 2 6 4 3 2 4 3 2 1 2 2 4 4 4 4 5 2 3 4 5 5 2 1 2 2 4 6 5 5 6 3 6 2 2 4 4 3 2
6 6 5 6 6 4 4 5 4 2 3 2 3 5 5 7 7 5 3 1 3 3 1 2 1 2 3 4 4 3 3 3 3 2 4 1 3 4 6 5 4 2 2 2 6 3 2 2 0 2 4 5 6 5 5 6 6 5 6 2 4 5
6 6 4 5 4 3 4 4 3 3 3 3 2 3 2 5 6 6 4 1 3 3 0 1 1 7 1 4 3 4 3 2 4 5 4 2 1 1 3 5 3 1 1 2 2 3 5 5 6 6 5 6 6 7 6 6 6 6 6 7 4 3
6 6 5 4 5 5 3 6 3 4 2 2 4 3 3 5 5 4 4 3 2 5 1 2 0 1 5 4 8 6 7 5 3 4 1 1 2 2 2 2 4 2 1 0 0 3 3 1 4 1 6 6 6 8 10 7 7 7 6 6 6 7
6 6 5 4 5 4 3 4 3 2 2 4 5 3 1 3 3 4 3 4 2 1 4 4 4 4 4 5 2 6 5 6 4 3 2 1 0 0 0 2 4 4 1 0 0 2 2 2 2 2 1 3 5 4 6 6 8 7 5 6 6 6
7 6 5 5 4 4 3 3 1 4 4 3 5 3 5 6 6 5 6 5 5 5 4 4 4 2 1 0 1 2 3 5 5 3 3 1 2 1 0 1 1 1 2 1 0 2 3 4 1 1 3 3 3 3 2 3 5 8 6 7 6 6
7 6 6 4 4 3 3 4 2 4 4 4 5 4 4 5 4 3 3 3 3 3 2 2 2 1 2 0 3 3 4 3 5 3 2 2 4 1 1 0 0 0 1 3 1 2 3 4 0 2 2 2 0 2 2 2 3 6 9 6 5 3
7 6 5 5 4 3 3 3 2 2 2 6 6 6 5 4 3 4 1 3 2 2 2 4 3 1 0 6 3 3 3 4 4 4 3 2 3 2 1 1 1 0 0 1 1 1 3 0 1 2 3 2 0 0 1 2 2 4 6 7 5 3
7 5 5 4 4 5 5 5 6 6 7 6 5 5 4 4 3 3 4 4 3 2 2 3 3 4 6 3 6 5 5 5 3 2 4 4 3 3 3 3 3 2 1 2 1 1 1 3 1 4 2 2 1 1 1 1 0 1 2 3 3 2
7 6 5 5 6 6 6 5 6 7 6 6 4 4 3 3 3 3 3 3 2 2 3 4 3 4 5 7 5 4 2 1 4 3 5 1 3 3 5 2 3 3 2 2 3 1 2 3 2 1 1 2 1 1 1 1 0 2 0 3 2 0
7 6 7 6 8 6 5 6 5 6 5 4 4 4 4 3 2 2 4 2 3 4 4 4 6 6 5 3 2 4 5 4 5 5 5 5 6 5 6 4 2 2 4 2 4 3 2 4 4 5 1 1 1 0 1 1 0 1 0 0 2 3
7 7 7 7 8 6 6 5 5 5 4 4 5 3 4 3 5 4 3 5 3 3 4 5 4 4 3 5 4 3 3 2 2 1 3 4 5 6 5 4 4 3 3 4 2 3 3 3 2 1 2 3 4 3 1 1 1 1 1 2 1 1
7 8 7 7 8 6 6 6 5 4 4 5 4 6 4 4 4 4 3 3 4 2 3 3 3 3 4 5 3 3 3 4 4 2 5 5 5 6 4 4 6 6 5 5 4 2 2 5 5 2 4 4 3 2 3 3 2 2 1 1 1 0
8 8 8 9 8 6 5 7 5 3 4 4 7 6 4 4 4 3 3 2 3 4 3 4 4 4 5 3 3 3 3 4 5 6 5 5 4 4 4 5 5 5 5 6 6 5 5 5 4 3 3 3 3 3 4 4 4 4 3 2 2 1
9 9 9 9 8 7 7 7 5 4 4 5 6 5 4 5 5 3 2 2 3 3 5 3 3 3 3 4 3 3 3 3 3 3 3 3 4 4 4 3 3 4 5 4 4 4 5 5 5 4 4 2 0 3 2 1 0 1 1 0 0 2
10 9 10 10 9 9 7 7 6 5 5 7 7 5 6 5 5 4 4 3 2 3 4 5 4 2 4 3 3 3 3 3 2 3 4 4 4 3 2 2 3 4 4 4 3 3 3 3 3 4 4 5 4 3 3 2 3 1 1 1 1 2
11 11 10 10 9 8 7 7 5 5 4 6 6 5 7 5 5 4 4 3 3 4 4 4 3 3 3 3 3 3 2 3 2 2 3 2 2 3 3 4 4 3 2 4 4 5 5 4 5 3 4 4 2 2 5 4 4 4 4 4 4 4
12 12 11 11 9 9 7 8 6 6 4 6 6 5 7 5 5 4 4 3 4 4 5 4 3 4 3 3 3 2 2 3 3 2 3 3 2 3 4 3 3 4 4 4 4 4 4 3 3 4 2 2 5 6 5 4 4 3 3 3 3 3
11 12 11 11 11 9 8 7 6 6 5 5 5 5 6 5 5 4 5 4 4 5 5 4 4 4 5 3 4 3 2 3 3 3 2 2 1 1 1 5 3 3 3 2 2 3 3 3 3 4 4 5 4 4 4 3 2 2 1 3 4 5
10 11 12 12 11 10 8 7 6 6 5 5 4 4 5 6 5 4 5 5 3 4 5 5 5 4 6 4 3 3 3 4 3 2 2 2 2 0 2 4 3 3 3 2 3 4 3 3 3 3 3 3 2 5 3 5 4 4 5 4 3 3
10 10 11 11 10 11 9 7 7 7 7 6 5 5 3 5 5 3 3 4 3 3 3 5 5 4 6 4 3 3 3 4 3 3 2 2 2 2 0 2 3 2 3 2 2 3 3 3 2 3 2 2 2 3 3 2 4 5 4 4 4 0
5 8 11 11 10 10 9 8 8 7 7 5 7 6 5 4 6 4 2 3 4 2 2 4 5 5 6 4 4 4 4 5 4 4 4 3 3 3 1 2 4 3 3 2 2 2 2 3 2 2 1 0 1 5 2 1 4 4 4 4 4 4
Wind_Direction
148 132 135 130 139 134 130 116 108 105 103 119 136 140 136 122 113 106 101 135 160 197 166 151 158 166 145 158 131 103 145 148 150 155 154 162 162 163 168 167 168 172 174 176 172 187 207 210 211 205 205 243 267 285 268 272 276 194 108 116 120 126
138 119 122 122 122 135 142 145 137 127 112 109 118 129 135 126 119 87 107 189 208 178 259 212 175 165 142 139 115 136 141 160 163 159 166 166 167 170 174 171 174 178 178 179 187 198 217 223 215 211 204 203 241 260 261 263 280 45 107 114 116 132
104 124 147 150 160 137 146 137 142 146 134 137 166 142 93 70 89 123 172 215 233 141 204 206 181 176 161 141 131 148 160 173 181 176 171 168 169 175 177 175 180 186 194 190 196 228 233 201 203 217 202 186 215 238 256 280 322 360 110 112 119 136
128 151 149 135 123 110 146 134 94 122 135 147 148 153 96 66 1 205 176 204 223 213 200 221 204 184 158 144 129 154 174 185 190 183 172 165 175 182 186 183 183 190 196 218 231 230 235 212 187 188 195 201 207 235 199 229 281 92 118 114 125 137
128 137 129 129 136 169 152 149 136 107 164 174 109 29 32 55 248 212 205 202 202 228 193 169 163 149 158 153 157 174 189 192 188 181 165 190 178 182 186 190 183 194 213 223 236 239 232 202 183 181 196 210 211 200 146 205 261 77 116 120 129 136
134 137 138 144 148 137 145 150 135 149 156 130 105 90 223 198 233 244 191 192 193 215 94 54 135 194 157 167 184 187 199 199 179 210 174 213 184 166 190 200 181 188 217 231 232 242 230 258 185 180 197 210 180 128 180 178 217 101 117 124 137 139
125 128 138 158 132 131 131 103 115 141 147 116 125 137 135 242 224 225 207 209 178 176 166 148 193 164 184 181 195 272 126 54 65 331 217 246 218 175 189 213 184 194 208 226 229 222 229 273 215 166 211 245 156 159 185 194 172 126 125 127 142 139
131 135 145 147 147 134 124 143 135 114 79 144 144 135 164 179 213 239 234 214 195 162 172 172 168 177 171 20 17 207 187 116 152 247 254 262 311 260 196 218 169 212 236 239 233 232 237 259 313 352 336 280 161 180 167 184 163 147 126 130 145 145
139 141 145 140 149 130 129 118 123 146 149 152 110 111 118 155 159 186 250 215 180 160 174 111 210 87 78 104 188 252 267 117 138 221 260 277 310 300 253 214 338 303 223 250 259 209 203 199 270 219 230 293 295 195 159 141 188 137 129 135 145 155
142 149 152 151 130 121 114 101 110 162 161 140 151 156 153 177 168 164 187 228 185 143 192 185 192 121 118 135 197 212 188 129 164 59 17 1 357 319 305 42 46 283 346 319 296 243 202 194 213 209 191 233 292 291 190 154 183 174 129 143 145 155
131 147 162 150 124 131 148 146 138 209 62 76 43 169 154 161 177 171 175 197 75 245 234 197 129 149 149 159 175 226 311 123 280 54 61 352 353 321 303 28 23 33 321 271 280 336 310 237 234 208 171 180 248 251 264 161 162 184 157 147 146 158
96 89 192 139 150 157 164 158 160 157 158 140 153 221 164 119 191 201 165 168 155 208 215 176 146 107 158 154 175 172 213 226 178 99 91 311 308 341 344 336 168 229 212 17 298 299 294 252 313 282 202 178 196 229 220 166 178 186 178 140 150 159
99 120 76 77 93 120 159 155 155 141 161 145 136 69 4 50 225 189 179 183 162 181 202 186 170 185 171 192 164 145 170 190 79 81 74 46 2 11 328 285 288 348 250 195 250 284 326 349 313 286 304 217 181 222 196 155 207 225 182 142 155 157
114 97 84 86 35 84 43 94 135 137 125 118 106 123 331 358 281 257 230 197 186 186 197 147 127 244 169 293 75 104 35 347 45 95 111 130 184 192 221 261 256 86 290 269 179 277 335 350 312 308 284 281 286 232 212 178 185 244 207 175 159 159
104 92 91 87 68 73 47 34 61 85 122 159 135 170 160 197 278 277 146 309 248 279 171 210 146 61 271 126 114 76 47 335 360 14 87 174 234 329 314 280 271 258 273 265 242 175 202 303 312 305 304 296 296 320 318 273 170 192 206 205 148 151
98 101 84 89 78 72 82 78 98 105 115 151 143 146 152 159 162 167 108 263 254 209 252 190 157 169 213 176 147 111 108 134 122 317 237 183 161 168 235 250 259 220 252 258 241 178 148 128 279 288 298 337 348 344 325 320 329 219 204 171 219 203
111 109 110 98 102 104 110 101 92 140 156 157 145 144 146 139 152 157 161 191 147 209 200 196 157 72 312 7 22 68 148 174 129 249 251 228 189 190 175 228 232 247 257 330 327 333 134 81 77 304 315 0 350 340 335 325 334 355 348 278 194 202
119 111 106 104 102 108 107 129 111 76 44 63 18 40 55 139 151 147 145 120 198 155 290 107 146 129 182 182 131 142 139 178 192 195 211 167 231 207 177 227 233 204 43 37 294 18 34 358 12 333 339 350 345 335 328 339 348 345 334 329 300 218
125 115 110 103 85 84 94 76 116 131 143 168 91 51 35 45 46 54 98 147 23 32 301 43 119 154 169 169 159 162 170 185 175 175 164 151 203 230 163 240 230 201 108 135 177 66 92 167 113 140 12 342 344 0 348 3 349 338 336 324 324 334
128 124 116 121 140 140 142 138 130 146 102 69 70 83 130 112 99 68 77 61 79 259 32 26 19 24 25 26 52 153 168 164 168 150 143 141 87 255 282 203 236 261 240 100 101 97 108 119 102 74 78 336 329 27 311 330 338 319 324 318 324 325
135 132 145 151 157 154 142 114 87 89 103 119 102 96 55 49 57 49 24 41 34 46 49 43 356 7 87 187 252 94 122 141 155 131 124 153 217 221 317 48 296 120 250 227 49 107 72 63 47 108 155 161 229 266 312 20 301 309 310 297 308 314
137 147 152 159 144 127 152 123 153 134 149 132 147 144 103 86 70 66 60 57 71 49 120 82 80 33 315 65 20 32 79 68 84 111 131 134 114 274 84 219 63 302 222 238 158 113 134 112 84 121 74 63 267 179 187 251 273 283 297 296 305 323
145 152 157 141 130 122 68 109 168 131 117 79 53 59 81 90 106 112 118 112 69 59 4 129 161 176 112 37 28 50 39 78 109 125 119 114 134 111 99 148 210 94 71 196 100 118 127 111 92 95 99 80 207 336 150 203 218 243 255 272 300 323
151 152 143 135 125 96 89 70 63 58 64 83 86 79 85 82 114 110 71 40 67 10 8 31 13 69 60 47 25 26 35 21 27 46 124 144 151 149 167 167 130 169 188 148 70 68 122 128 126 130 136 172 157 92 316 167 138 322 268 277 310 337
153 144 139 129 110 105 102 94 76 77 77 90 93 107 118 120 95 95 112 90 66 50 61 45 33 45 70 59 37 5 19 73 35 16 2 83 138 144 167 160 142 132 114 72 124 112 77 110 175 25 87 97 97 152 207 167 223 229 43 286 284 169
152 141 141 132 118 121 128 118 119 115 121 118 134 152 131 128 135 95 85 137 73 62 54 32 53 44 45 76 80 28 12 28 54 25 11 19 21 354 47 46 118 114 107 125 120 109 97 43 67 74 28 57 65 77 9 349 12 244 142 301 295 338
153 142 142 136 130 137 134 129 139 137 147 153 148 131 103 93 93 104 105 75 85 54 75 70 61 72 59 58 54 42 11 27 108 80 58 32 31 28 29 24 19 32 65 142 130 98 113 129 125 101 129 121 146 169 240 335 178 69 316 302 311 333
153 143 145 142 142 146 142 140 153 161 167 153 137 119 119 102 97 101 98 116 111 136 102 97 94 87 88 64 45 47 31 5 6 81 85 55 44 28 33 26 15 13 26 51 29 78 160 165 155 165 169 163 182 149 150 222 58 109 155 277 274 144
155 143 150 147 148 152 145 146 155 159 171 132 116 121 122 119 113 96 107 138 107 97 63 56 77 69 73 84 74 56 40 29 23 17 58 65 44 54 52 26 22 20 33 25 15 19 23 34 38 78 154 165 182 181 164 182 209 173 182 183 255 286
155 150 151 151 153 156 150 149 160 157 171 130 128 136 135 125 116 145 130 104 99 104 107 115 101 102 111 99 106 97 76 48 32 48 76 86 108 70 36 49 48 37 18 51 53 28 30 19 37 20 353 6 7 151 161 172 221 235 192 239 156 278
158 151 155 155 159 162 152 158 167 162 171 140 146 147 129 134 130 154 142 139 163 126 122 104 95 91 95 98 88 79 77 97 72 32 42 56 62 76 100 109 87 55 41 51 36 52 44 27 37 39 15 20 29 21 32 5 47 3 358 334 285 272
159 155 157 157 160 164 155 161 169 158 170 143 148 152 136 149 149 155 147 163 148 126 118 122 135 108 106 115 91 76 68 77 65 48 64 53 79 113 104 65 41 68 80 46 35 51 38 31 12 56 37 360 347 27 49 42 12 23 28 10 358 332
163 156 160 159 161 164 160 163 167 159 165 144 150 154 141 157 154 159 150 169 151 155 134 135 151 138 126 124 112 140 164 116 81 44 52 81 53 60 81 70 74 69 50 60 60 58 65 44 39 21 10 12 18 40 37 28 35 22 26 355 338 326
168 157 161 161 160 165 165 163 164 155 157 147 151 159 142 164 153 171 155 173 165 162 151 154 157 149 146 161 147 167 155 100 100 106 102 62 53 53 116 129 120 100 97 107 100 81 70 68 41 27 6 52 24 35 12 25 355 341 48 37 20 28
174 162 164 163 160 164 163 165 163 151 160 149 154 161 155 160 158 182 163 163 178 164 151 154 158 148 147 180 154 151 131 128 135 123 95 120 120 129 319 90 96 92 92 78 71 80 70 56 57 48 34 355 92 68 18 17 348 38 10 33 46 61
179 166 166 164 164 163 162 163 162 153 165 154 160 157 179 152 159 183 167 154 175 178 152 154 148 154 147 177 161 148 149 140 152 140 155 152 181 144 211 107 106 117 106 103 123 143 140 119 101 90 53 316 66 80 51 18 18 25 26 3 352 132
246 183 168 165 165 163 159 162 164 157 162 163 162 165 178 170 156 172 175 148 162 170 188 145 152 149 150 177 166 167 168 160 158 168 166 177 194 130 165 157 124 158 147 152 169 80 90 110 164 122 128 321 123 112 73 31 62 23 20 12 345 340